Home > Weather > Kudus > Past weeks

Flag for Indonesia Weather for the Past 2 Weeks in Kudus, Java, Indonesia

Now
90 °F

Scattered clouds.


Feels Like: 100 °F
Forecast: 76 / 92 °F
Wind: 13 mph from East

Location: Jakarta / Soekarno-Hatta

Current Time: Apr 29, 2016 at 11:28:52 AM

Latest Report: Apr 29, 2016 at 11:00 AM


Visibility: 4 mi

Pressure: 29.83 "Hg

Humidity: 63%

Dew Point: 75 °F

Location of KudusLocation

Historic Weather in Kudus — Graph

°F

Kudus Temperature Yesterday

Maximum temperature yesterday: 90 °F (at 10:00 AM)
Minimum temperature yesterday: 79 °F (at 2:30 AM)
Average temperature yesterday: 84 °F

High & Low Weather Summary for the Past Weeks

 TemperatureHumidityPressure
High93 °F (Apr 14, 11:00 AM)100% (Apr 15, 4:00 AM)29.89 "Hg (Apr 15, 4:00 AM)
Low77 °F (Apr 17, 7:00 PM)20% (Apr 17, 5:00 PM)29.71 "Hg (Apr 19, 3:30 PM)
Average84 °F82%29.81 "Hg
* Reported Apr 14 10:00 AM — Apr 29 10:30 AM, Kudus, Weather by CustomWeather, © 2016

Note: Actual official high and low records may vary slightly from our data, if they occured in-between our weather recording intervals... More about our weather records

Advertising

Kudus Weather History for the Previous 24 Hours

Scroll right to see more
 ConditionsComfort  
Time TempWeatherWind HumidityBarometerVisibility
10:30 AM
Fri, Apr 29
90 °FScattered clouds.12 mph63%29.83 "Hg4 mi
9:30 AM88 °FScattered clouds.10 mph66%29.86 "Hg4 mi
9:00 AM88 °FScattered clouds.13 mph70%29.86 "Hg4 mi
8:00 AM84 °FScattered clouds.8 mph74%29.86 "Hg4 mi
7:30 AM82 °FPassing clouds.10 mph79%29.83 "Hg6 mi
7:00 AM82 °FPassing clouds.8 mph79%29.83 "Hg5 mi
6:30 AM82 °FPassing clouds.10 mph79%29.83 "Hg5 mi
6:00 AM81 °FCloudy.7 mph84%29.83 "HgN/A
5:30 AM81 °FPassing clouds.7 mph89%29.83 "Hg4 mi
4:30 AM81 °FMostly cloudy.5 mph89%29.80 "Hg4 mi
4:00 AM81 °FHaze.6 mph89%29.80 "Hg2 mi
3:30 AM81 °FHaze.3 mph89%29.80 "Hg2 mi
3:00 AM81 °FHaze.2 mph89%29.80 "Hg2 mi
2:30 AM81 °FHaze.5 mph89%29.80 "Hg2 mi
2:00 AM79 °FHaze.3 mph89%29.80 "Hg2 mi
1:30 AM79 °FHaze.3 mph89%29.80 "Hg2 mi
1:00 AM79 °FHaze.2 mph89%29.80 "Hg2 mi
12:30 AM81 °FHaze.5 mph84%29.83 "Hg2 mi
12:00 AM79 °FHaze.3 mph89%29.83 "Hg2 mi
11:30 PM
Thu, Apr 28
79 °FHaze.6 mph89%29.86 "Hg2 mi
11:00 PM79 °FHaze.6 mph89%29.86 "Hg3 mi
10:30 PM81 °FPassing clouds.5 mph84%29.86 "Hg4 mi
10:00 PM81 °FPassing clouds.6 mph84%29.86 "Hg4 mi
9:30 PM81 °FPassing clouds.5 mph84%29.86 "Hg4 mi
9:00 PM84 °FPassing clouds.9 mph79%29.86 "Hg4 mi
8:00 PM82 °FPassing clouds.9 mph79%29.80 "Hg5 mi
7:30 PM84 °FPassing clouds.9 mph79%29.80 "Hg5 mi
7:00 PM84 °FPassing clouds.12 mph84%29.80 "Hg5 mi
6:30 PM84 °FPassing clouds.10 mph84%29.77 "Hg5 mi
6:00 PM84 °FPassing clouds.9 mph79%29.77 "Hg5 mi
5:30 PM86 °FScattered clouds.13 mph75%29.74 "Hg6 mi
5:00 PM86 °FPassing clouds.14 mph79%29.74 "HgN/A
4:30 PM86 °FPassing clouds.14 mph79%29.74 "HgN/A
4:00 PM86 °FPassing clouds.13 mph79%29.71 "HgN/A
3:30 PM90 °FPassing clouds.12 mph71%29.71 "HgN/A
3:00 PM90 °FPassing clouds.12 mph71%29.71 "HgN/A
2:30 PM90 °FScattered clouds.13 mph71%29.71 "HgN/A
1:00 PM90 °FPassing clouds.14 mph71%29.77 "HgN/A
12:00 PM90 °FPassing clouds.12 mph71%29.80 "HgN/A
11:00 AM90 °FPassing clouds.10 mph67%29.80 "HgN/A
Weather by CustomWeather, © 2016

See weather overviewHow to use our weather pages